Location: Unspecified
(0.0000°N, 0.0000°E)
Time: 00:12:46
(UTC+00:00)

Envisat - Pass Details

Date: 26 November 2022
Orbit: 763 x 765 km, 98.2° (Epoch: 02 December)

Event Time Altitude Azimuth Distance (km) Brightness Sun altitude
Exits shadow 04:00:27 63° 343° (NNW) 851 3.0 -24.8°
Maximum altitude 04:01:12 76° 282° (WNW) 787 2.8 -24.6°
Drops below altitude 10° 04:06:16 10° 197° (SSW) 2,300 5.5 -23.5°
Sets 04:08:35 0° 195° (SSW) 3,228 6.3 -22.9°
